Strona główna
METAR-TAF:

METAR-TAF

Lotnisko :

Norwood Memorial Airport

Norwood, Massachusetts, Stany Zjednoczone

Szerokość geograficzna: 42-11-27N, Długość geograficzna: 071-10-26W, wysokość: 15 m

Aktualna obserwacja pogody

Raport powstał 55 minut temu, godzina 08:53 UTC
Wiatr 4 kt od południowy zachód
Temperatura -1°C
Wilgotność 74%
Ciśnienie 1016 hPa
Widzialność: 16.1 km
bezchmurnie

METAR: KOWD 210853Z AUTO 22004KT 10SM CLR M01/M05 A2999 RMK AO2 SLP155 T10061050 51009

czas: 04:48 (09:48 UTC)


TAF: brakujący

Obserwacja i prognoza pogody dla ponad 4000 lotnisk (raport METAR i TAF).

Dostępne stacje oznaczono żółtymi i czerwonymi punktami na mapie.

Najedź kursorem aby zobaczyć nazwę stacji.

Kliknij aby zobaczyć obserwacje i prognozy pogody.

Aby zmienić mapę: kliknij na zielony przycisk z czarnym krzyżykiem, aby powiększyć; na zielony przycisk z myślnikiem, aby pomniejszyć; na zielone strzałki, aby przejść do map sąsiednich.


METAR-TAF: